Location: Medoc Mountain State Park
(36.2578°N, 77.8786°W)
Time: 07:33:43
(UTC-05:00)

Daily predictions for brighter satellites

Satellite Brightness Start Highest point End
(mag) Time Altitude Azimuth Time Altitude Azimuth Time Altitude Azimuth
Cosmos 1536 Rocket 4.1 18:19:30 10° N 18:23:39 37° E 18:27:48 10° SSE
Cosmos 1818 3.7 18:18:16 10° SSW 18:23:42 85° WNW 18:29:11 10° NNE
Cosmos 407 Rocket 3.7 18:19:54 10° SSW 18:25:07 85° WNW 18:30:28 10° NNE
Cosmos 2219 4.4 18:23:36 10° SSE 18:27:51 22° E 18:32:07 10° NE
Cosmos 2360 Rocket 2.9 18:23:46 10° N 18:28:49 32° ENE 18:33:50 10° ESE
Cosmos 1980 Rocket 4.4 18:24:31 10° NW 18:29:27 31° WSW 18:34:22 10° SSW
ASTRO F (AKARI) 4.4 18:26:04 10° NNE 18:29:35 72° ESE 18:32:55 10° S
Cosmos 676 Rocket 4.0 18:24:33 10° S 18:29:41 72° ESE 18:34:53 10° NNE
DNEPR-1 R/B 3.4 18:28:32 10° NNW 18:32:45 81° ENE 18:37:05 10° SSE
Meteor 1-11 Rocket 4.2 18:31:58 10° SSE 18:37:19 41° E 18:42:48 10° NNE
Nadezhda 1 Rocket 4.2 18:33:43 10° N 18:39:47 77° W 18:45:50 10° S
Cosmos 1140 Rocket 3.5 18:39:46 10° S 18:44:47 58° ESE 18:49:51 10° NNE
Cosmos 1461 3.0 18:41:27 10° NNW 18:45:29 77° WSW 18:49:36 10° SSE
DELTA 2 R/B (1) 3.6 18:39:58 10° WNW 18:45:37 78° NNE 18:50:43 13° E
Cosmos 1602 3.8 18:44:11 10° S 18:47:57 55° E 18:51:46 10° NNE
Resurs 01 Rocket 2.6 18:44:39 10° SE 18:48:19 26° ENE 18:51:59 10° NNE
Cosmos 1300 Rocket 3.6 18:45:09 10° S 18:49:26 55° E 18:53:47 10° NNE
Cosmos 2292 Rocket 4.3 18:47:26 10° S 18:52:21 86° W 18:59:03 10° N
Cosmos 614 Rocket 4.1 18:47:46 10° S 18:52:40 50° ESE 18:57:34 10° NNE
Cosmos 1833 4.3 18:48:59 10° SSW 18:54:42 86° WNW 19:00:24 10° NNE
Abrixas rocket 2.9 18:51:55 10° SSW 18:55:01 36° SE 18:56:51 20° E
ALOS 2.5 18:51:47 10° SE 18:56:11 44° ENE 19:00:38 10° N
COSMO-SKYMED 1 4.5 18:52:51 10° N 18:56:45 33° WNW 19:00:38 10° SW
Cosmos 2181 Rocket 4.0 18:53:36 10° N 18:59:50 65° E 19:06:07 10° SSE
Spot 2 Rocket 4.0 18:56:00 10° SE 19:00:37 37° ENE 19:05:16 10° N
Cosmos 2333 Rocket 3.9 19:00:52 10° NNE 19:03:41 14° NE 19:04:11 14° ENE
FREGAT/IRIS 2.6 19:00:50 10° S 19:03:55 87° W 19:07:00 10° NNW
Helios 1A 4.3 19:04:16 20° ENE 19:04:26 20° ENE 19:07:28 10° NNE
SL-16 R/B 3.4 19:00:11 10° NW 19:05:34 46° WSW 19:10:56 10° S
Resurs 1-3 4.2 19:02:11 10° SE 19:06:08 34° ENE 19:10:06 10° N
Cosmos 1340 2.7 19:04:19 10° N 19:08:07 84° W 19:11:53 10° S
Cosmos 1709 Rocket 4.3 19:05:32 10° SSW 19:11:44 70° W 19:17:54 10° N
Cosmos 2074 Rocket 4.2 19:05:55 10° SSE 19:11:50 48° E 19:17:49 10° NNE
Cosmos 1850 Rocket 4.0 19:06:40 10° S 19:11:53 66° ESE 19:17:11 10° NNE
Cosmos 2184 Rocket 4.2 19:08:46 10° SSE 19:14:47 49° E 19:20:47 10° NNE
FengYun 1-2 T 4.1 19:12:46 10° SSE 19:18:13 73° ENE 19:23:42 10° N
NOSS 8 (H) 4.5 19:15:57 10° SW 19:19:21 78° WNW 19:21:51 18° NNE
Helios 1B rocket 3.1 19:18:13 26° ENE 19:19:36 33° E 19:23:21 10° SSE
Intercosmos 24 4.4 19:15:48 10° SSE 19:19:40 48° E 19:24:59 10° NNE
HJ-1C 3.3 19:17:41 10° SSE 19:21:03 88° ENE 19:24:25 10° N
Cosmos 2322 Rocket 4.1 19:16:59 10° NW 19:21:52 31° WSW 19:26:44 10° SSW
SJ-6B 3.6 19:18:25 10° S 19:22:22 55° W 19:26:16 10° NNW
OTV 4 2.8 19:20:39 10° S 19:21:31 13° S 19:21:31 13° S
Okean 1 Rocket 3.2 19:19:45 10° S 19:24:14 78° W 19:28:43 10° N
Meteor 1-5 Rocket 4.4 19:19:10 10° S 19:24:58 56° E 19:30:44 10° NNE
Tiangong 2 2.3 19:22:36 10° W 19:25:27 35° SSW 19:26:32 26° S
FENGYUN 3A 3.6 19:20:38 10° SSE 19:26:02 88° ENE 19:31:30 10° NNW
Genesis I 3.6 19:24:13 10° NNW 19:27:57 41° NE 19:28:05 40° ENE
SAR-Lupe-4 4.3 19:30:26 36° NE 19:30:26 36° NE 19:33:02 10° N
Meteor 1-19 Rocket 4.4 19:24:23 10° NNW 19:30:06 78° W 19:35:52 10° S
Hubble Space Telescope 2.7 19:28:37 10° SSW 19:31:14 16° SSE 19:31:23 16° SSE
Gbstr 26 Del rocket 4.0 19:31:30 10° WSW 19:35:03 35° NW 19:36:53 22° NNE
Cosmos 2322 3.9 19:32:42 10° NNW 19:38:25 75° WSW 19:44:05 10° SSE
Cosmos 1238 Rocket 4.1 19:36:26 10° NNW 19:39:03 29° W 19:41:43 10° SSW
Atlas Centaur 2 4.3 19:41:01 10° S 19:43:34 12° SSE 19:43:34 12° SSE
CZ-2D R/B 3.0 19:43:32 75° E 19:43:38 76° ENE 19:47:26 10° N
Cosmos 2154 Rocket 4.3 19:37:52 10° SSE 19:43:47 43° E 19:49:42 10° NNE
GEOS 3 Rocket 4.3 19:40:41 10° NNE 19:45:47 54° NW 19:50:55 10° SW
Cosmos 2285 Rocket 4.1 19:39:38 10° N 19:45:54 52° ENE 19:47:51 39° ESE
GPS 2-04 Rocket1 2.9 19:41:59 10° WSW 19:46:15 64° SSE 19:46:29 63° SSE
Cosmos 1025 Rocket 2.9 19:42:29 10° N 19:46:53 81° E 19:48:42 35° SSE
H-2A R/B 3.0 19:46:26 19° S 19:48:55 64° W 19:52:38 10° NNW
Meteor 2-13 Rocket 4.3 19:43:43 10° S 19:49:39 62° E 19:55:39 10° NNE
Cosmos 1536 4.0 19:46:10 10° SSW 19:49:57 42° W 19:53:46 10° N
Okean 1-7 Rocket 4.0 19:48:36 10° NNW 19:53:05 62° W 19:57:28 10° S
COSMOS 2428 2.6 19:48:06 10° NNW 19:53:49 76° ENE 19:55:38 45° SE
Meteor 1-23 Rocket 4.2 19:48:02 10° N 19:53:52 84° W 19:59:35 10° S
Cosmos 2237 4.2 19:48:20 10° NNW 19:54:05 84° WSW 19:57:28 26° SSE
Cosmos 2333 4.1 19:49:28 10° NNW 19:55:12 67° ENE 19:56:22 54° ESE
Meteor 2-4 Rocket 4.0 19:50:42 10° NNW 19:56:09 63° W 20:01:27 10° S
Cosmos 2237 Rocket 3.7 19:53:04 10° N 19:55:53 22° NNE 19:55:53 22° NNE
NOSS 0 Rocket 4.4 20:03:33 10° N 20:08:25 43° NNE 20:08:25 43° NNE
Cosmos 2219 4.2 20:06:06 10° SW 20:11:37 46° WNW 20:17:08 10° N
Cosmos 2360 Rocket 3.9 20:07:46 10° NW 20:12:42 31° WSW 20:17:36 10° SSW
Cosmos 2219 Rocket 2.6 20:09:17 10° NNW 20:13:35 49° NNE 20:13:35 49° NNE
Cosmos 2227 Rocket 4.1 20:12:15 10° S 20:13:25 17° S 20:13:25 17° S
Resurs 01 Rocket 3.8 20:21:10 10° SSW 20:24:42 24° W 20:28:15 10° NW
DELTA 2 R/B (1) 4.5 20:26:39 10° W 20:31:31 41° SW 20:31:31 41° SW
ATLAS CENTAUR R/B 4.3 20:29:22 10° WSW 20:30:46 17° WSW 20:30:46 17° WSW
BREEZE-M DEB (TANK) 4.3 20:30:32 10° NW 20:34:49 79° NE 20:35:01 78° ENE
Cosmos 2333 Rocket 3.4 20:42:54 10° NNW 20:46:14 36° NNW 20:46:14 36° NNW
USA 229 DEB 4.0 20:47:40 10° NW 20:54:32 64° WSW 20:54:32 64° WSW
USA 229 4.0 20:47:46 10° NW 20:54:36 65° WSW 20:54:36 65° WSW
